Location: Brompton
(51.4000°N, 0.5333°E)
Time: 16:44:08
(UTC+00:00)

SPOT 5 - Pass Details

Date: 11 May 2021
Orbit: 623 x 815 km, 98.2° (Epoch: 18 June)

Event Time Altitude Azimuth Distance (km) Brightness Sun altitude
Exits shadow 21:38:30 18° 174° (S) 1,806 4.4 -14.4°
Maximum altitude 21:42:18 73° 256° (WSW) 827 3.2 -14.7°
Drops below altitude 10° 21:47:39 10° 342° (NNW) 2,400 6.8 -15.2°
Sets 21:50:03 0° 345° (NNW) 3,347 7.9 -15.4°
